TimeHST,TemperatureF,Dew PointF,Humidity,Sea Level PressureIn,VisibilityMPH,Wind Direction,Wind SpeedMPH,Gust SpeedMPH,PrecipitationIn,Events,Conditions,WindDirDegrees,DateUTC
12:54 AM,75.0,69.1,82,29.97,10.0,Calm,Calm,-,N/A,,Overcast,0,2013-04-13 10:54:00
1:54 AM,72.0,69.1,91,29.97,10.0,Calm,Calm,-,N/A,,Partly Cloudy,0,2013-04-13 11:54:00
2:54 AM,70.0,68.0,93,29.96,10.0,Calm,Calm,-,N/A,,Clear,0,2013-04-13 12:54:00
3:54 AM,69.1,66.9,93,29.95,10.0,SE,6.9,-,N/A,,Clear,130,2013-04-13 13:54:00
4:54 AM,66.0,66.0,100,29.96,10.0,SSE,5.8,-,N/A,,Clear,160,2013-04-13 14:54:00
5:54 AM,66.9,66.0,97,29.97,10.0,SSE,4.6,-,N/A,,Clear,160,2013-04-13 15:54:00
6:54 AM,70.0,64.9,84,29.97,10.0,SE,3.5,-,N/A,,Clear,130,2013-04-13 16:54:00
7:54 AM,73.0,66.9,81,29.95,10.0,East,4.6,-,N/A,,Partly Cloudy,90,2013-04-13 17:54:00
8:54 AM,78.1,68.0,71,29.90,10.0,NNW,11.5,-,N/A,,Clear,340,2013-04-13 18:54:00
9:54 AM,82.0,69.1,65,29.87,10.0,WNW,12.7,27.6,N/A,,Clear,300,2013-04-13 19:54:00
10:54 AM,86.0,70.0,59,29.87,10.0,NNW,4.6,21.9,N/A,,Scattered Clouds,330,2013-04-13 20:54:00
11:54 AM,82.9,69.1,63,29.91,10.0,Variable,5.8,-,N/A,,Scattered Clouds,0,2013-04-13 21:54:00
12:54 PM,84.9,70.0,61,29.91,10.0,NW,6.9,-,N/A,,Scattered Clouds,310,2013-04-13 22:54:00
1:54 PM,86.0,70.0,59,29.90,10.0,NW,9.2,-,N/A,,Scattered Clouds,320,2013-04-13 23:54:00
2:54 PM,82.9,70.0,65,29.90,10.0,North,12.7,-,N/A,,Scattered Clouds,350,2013-04-14 00:54:00
3:54 PM,81.0,70.0,69,29.90,10.0,NE,15.0,-,N/A,,Scattered Clouds,50,2013-04-14 01:54:00
4:54 PM,79.0,71.1,77,29.93,10.0,ENE,9.2,-,N/A,,Mostly Cloudy,60,2013-04-14 02:54:00
5:54 PM,78.1,71.1,79,29.94,10.0,SSE,3.5,-,N/A,,Mostly Cloudy,150,2013-04-14 03:54:00
6:54 PM,75.9,72.0,87,29.96,10.0,SSW,8.1,-,N/A,,Scattered Clouds,200,2013-04-14 04:54:00
7:54 PM,75.0,71.1,87,29.95,10.0,South,8.1,-,N/A,,Clear,190,2013-04-14 05:54:00
8:54 PM,73.0,72.0,96,29.96,10.0,South,4.6,-,N/A,,Clear,170,2013-04-14 06:54:00
9:54 PM,73.9,72.0,93,29.99,10.0,Calm,Calm,-,N/A,,Clear,0,2013-04-14 07:54:00
10:54 PM,71.1,71.1,100,29.98,10.0,SSE,4.6,-,N/A,,Clear,160,2013-04-14 08:54:00
11:54 PM,70.0,68.0,93,29.96,10.0,SSE,6.9,-,N/A,,Clear,160,2013-04-14 09:54:00